This demonstration page uses our WeatherBlox Daily Observations layout. Learn more.

Left ArrowRight Arrow

38.89511, -77.03637

Hourly Observations for May 12, 2019

Temp ( °F °C ) Dew Point ( °F °C ) Humidity (%) Winds ( mph kmh ) Pressure ( in mb ) Visibility ( mi km ) Precip ( " mm )
12:52 am 00:52 Cloudy with Light Rain 60 15.6 57 13.9 90 90 NNE 7 11 29.88 1012 4 6 0.04 1.02
1:49 am 01:49 Cloudy with Rain 61 16 57 14 88 88 NNE 6 9 29.85 1011 3 4 0.03 0.76
1:52 am 01:52 Cloudy with Heavy Rain 61 16.1 58 14.4 90 90 NNE 7 11 29.84 1011 3 4 0.04 1.02
1:59 am 01:59 Cloudy with Rain 61 16.1 58 14.4 90 90 NNE 7 11 29.84 1010 3 5 0.04 1.02
2:52 am 02:52 Cloudy with Drizzle 61 16.1 58 14.4 90 90 NE 6 9 29.81 1009 3 5 0.06 1.52
2:54 am 02:54 Cloudy with Drizzle 61 16.1 58 14.4 90 90 NE 7 11 29.81 1009 2 3 0.00 0.03
3:07 am 03:07 Cloudy with Light Rain 61 16.1 58 14.4 90 90 ENE 9 15 29.81 1009 3 5 0.01 0.25
3:52 am 03:52 Cloudy with Light Rain 61 16.1 58 14.4 90 90 ENE 9 15 29.79 1009 3 5 0.02 0.51
4:52 am 04:52 Cloudy with Drizzle 61 16.1 58 14.4 90 90 NNE 7 11 29.78 1008 3 5 0.01 0.25
5:38 am 05:38 Cloudy with Drizzle 61 16.1 58 14.4 90 90 NE 13 20 29.75 1007 3 4 0.00 0.03
5:41 am 05:41 Cloudy with Drizzle 61 16.1 58 14.4 90 90 NE 13 20 29.75 1007 3 5 0.01 0.25
5:52 am 05:52 Cloudy with Drizzle 61 16.1 58 14.4 90 90 ENE 14 22 29.76 1008 3 5 0.01 0.25
6:08 am 06:08 Cloudy with Drizzle 60 15.6 57 13.9 90 90 ENE 16 26 29.77 1008 5 8 0.00 0.03
6:52 am 06:52 Cloudy with Light Rain 58 14.4 55 12.8 90 90 ENE 14 22 29.78 1008 3 5 0.00 0.03
7:18 am 07:18 Cloudy with Light Rain 58 14.4 54 12.2 87 87 ENE 21 33 29.78 1008 2 3 0.00 0.03
7:41 am 07:41 Cloudy with Light Rain 57 13.9 54 12.2 90 90 ENE 16 26 29.78 1008 2 3 0.00 0.03
7:52 am 07:52 Cloudy with Light Rain 57 13.9 54 12.2 90 90 NE 17 28 29.78 1008 3 4 0.00 0.03
8:10 am 08:10 Cloudy with Light Rain 57 13.9 54 12.2 90 90 NE 12 19 29.79 1009 2 3 0.01 0.25
8:44 am 08:44 Cloudy with Light Rain 57 13.9 54 12.2 90 90 NE 12 19 29.78 1008 2 3 0.02 0.51
8:52 am 08:52 Cloudy with Light Rain 57 13.9 54 12.2 90 90 ENE 16 26 29.78 1008 3 4 0.03 0.76
9:11 am 09:11 Cloudy with Rain 57 13.9 53 11.7 87 87 NE 16 26 29.76 1008 3 4 0.02 0.51
9:23 am 09:23 Cloudy with Light Rain 57 13.9 54 12.2 90 90 NE 14 22 29.76 1008 9 14 0.03 0.76
9:52 am 09:52 Cloudy 57 13.9 53 11.7 87 87 ENE 13 20 29.75 1008 10 16 0.03 0.76
10:52 am 10:52 Cloudy with Light Rain 57 13.9 53 11.7 87 87 ENE 15 24 29.74 1007 3 5 0.00 0.03
10:57 am 10:57 Cloudy with Light Rain 57 13.9 53 11.7 87 87 ENE 12 19 29.74 1007 2 2 0.01 0.25
11:14 am 11:14 Cloudy with Light Rain 57 13.9 53 11.7 87 87 ENE 12 19 29.74 1007 3 4 0.02 0.51
11:37 am 11:37 Cloudy with Heavy Rain 57 13.9 53 11.7 87 87 NE 10 17 29.74 1007 2 3 0.08 2.03
11:39 am 11:39 Cloudy with Heavy Rain 57 13.9 54 12.2 90 90 NE 12 19 29.74 1007 2 3 0.09 2.29
11:52 am 11:52 Cloudy with Heavy Rain 57 13.9 54 12.2 90 90 NNE 12 19 29.74 1007 2 3 0.16 4.06
11:55 am 11:55 Cloudy with Light Rain 57 13.9 54 12.2 90 90 NNE 10 17 29.74 1007 4 6 0.00 0.03
12:52 pm 12:52 Cloudy with Light Rain 58 14.4 54 12.2 87 87 NNE 12 19 29.75 1007 10 16 0.07 1.78
1:52 pm 13:52 Cloudy with Light Rain 58 14.4 54 12.2 87 87 NNE 10 17 29.74 1007 10 16 0.01 0.25
2:52 pm 14:52 Cloudy with Light Rain 59 15 54 12.2 83 83 NNE 12 19 29.74 1007 10 16 0.01 0.25
3:52 pm 15:52 Cloudy 58 14.4 53 11.7 84 84 NE 17 28 29.75 1007 10 16 0.00 0.03
4:52 pm 16:52 Cloudy 56 13.3 51 10.6 84 84 NE 16 26 29.76 1008 10 16 0.00 0.00
5:52 pm 17:52 Cloudy 55 12.8 50 10 83 83 NE 16 26 29.77 1008 10 16 0.00 0.00
6:52 pm 18:52 Cloudy 55 12.8 49 9.4 80 80 ENE 14 22 29.78 1009 10 16 0.00 0.00
7:52 pm 19:52 Cloudy 54 12.2 50 10 87 87 NE 16 26 29.78 1009 10 16 0.00 0.00
8:29 pm 20:29 Cloudy with Light Rain 54 12.2 50 10 87 87 ENE 10 17 29.80 1009 7 11 0.00 0.03
8:52 pm 20:52 Cloudy with Rain 53 11.7 49 9.4 86 86 ENE 12 19 29.81 1010 6 10 0.03 0.76
9:01 pm 21:01 Cloudy with Light Rain 53 11.7 49 9.4 86 86 NE 12 19 29.81 1010 8 13 0.01 0.25
9:30 pm 21:30 Cloudy with Light Rain 53 11.7 49 9.4 86 86 ENE 17 28 29.81 1010 10 16 0.01 0.25
9:52 pm 21:52 Cloudy with Light Rain 53 11.7 49 9.4 86 86 ENE 12 19 29.82 1010 10 16 0.02 0.51
10:11 pm 22:11 Cloudy with Light Rain 53 11.7 49 9.4 86 86 NE 9 15 29.82 1010 10 16 0.00 0.03
10:26 pm 22:26 Cloudy 53 11.7 49 9.4 86 86 NNE 12 19 29.83 1010 10 16 0.00 0.03
10:37 pm 22:37 Cloudy 53 11.7 49 9.4 86 86 NE 12 19 29.83 1010 10 16 0.00 0.03
10:52 pm 22:52 Cloudy 53 11.7 48 8.9 83 83 ENE 9 15 29.83 1010 10 16 0.00 0.03
11:52 pm 23:52 Cloudy 52 11.1 48 8.9 86 86 NE 10 17 29.83 1010 10 16 0.00 0.00

Powered by AerisWeather